Location: Be?i?
(36.9044°N, 30.1006°E)
Time: 11:12:07
(UTC+00:00)

USA 215 - Pass Details

Date: 05 August 2024
Orbit: 1102 x 1105 km, 123.0° (Epoch: 04 September)

Event Time Altitude Azimuth Distance (km) Brightness Sun altitude
Exits shadow 20:43:45 32° 61° (ENE) 1,797 4.3 -33.1°
Maximum altitude 20:45:23 36° 32° (NNE) 1,661 4.3 -33.2°
Drops below altitude 10° 20:51:14 10° 329° (NNW) 2,964 6.3 -33.7°
Sets 20:53:54 0° 321° (NW) 3,924 7.1 -33.8°
